This demonstration page uses our WeatherBlox Daily Observations layout. Learn more.

Left ArrowRight Arrow

Hourly Observations for April 10, 2021

Temp ( °F °C ) Dew Point ( °F °C ) Humidity (%) Winds ( mph kmh ) Pressure ( in mb ) Visibility ( mi km ) Precip ( " mm )
12:53 am 00:53 Clear 53 11.7 43 6.1 69 69 Calm 30.03 1017 10 16 0.00 0.00
1:53 am 01:53 Clear 50 10 42 5.6 74 74 Calm 30.04 1017 10 16 0.00 0.00
2:53 am 02:53 Clear 48 8.9 42 5.6 80 80 Calm 30.05 1018 10 16 0.00 0.00
3:53 am 03:53 Clear 46 7.8 41 5 83 83 Calm 30.05 1018 10 16 0.00 0.00
4:53 am 04:53 Clear 43 6.1 39 3.9 86 86 Calm 30.06 1018 10 16 0.00 0.00
5:53 am 05:53 Clear 43 6.1 39 3.9 86 86 N 7 11 30.05 1018 10 16 0.00 0.00
6:53 am 06:53 Sunny 43 6.1 40 4.4 89 89 NNE 3 6 30.08 1019 10 16 0.00 0.00
7:53 am 07:53 Sunny 49 9.4 42 5.6 77 77 N 3 6 30.10 1019 10 16 0.00 0.00
8:53 am 08:53 Sunny 53 11.7 44 6.7 72 72 Calm 30.09 1019 10 16 0.00 0.00
9:53 am 09:53 Sunny 59 15 43 6.1 56 56 NNE 7 11 30.07 1018 10 16 0.00 0.00
10:53 am 10:53 Sunny 63 17.2 43 6.1 48 48 NNE 5 7 30.06 1018 10 16 0.00 0.00
11:53 am 11:53 Sunny 69 20.6 41 5 36 36 VRB 3 6 30.04 1017 10 16 0.00 0.00
12:53 pm 12:53 Sunny 72 22.2 38 3.3 29 29 VRB 5 7 30.01 1016 10 16 0.00 0.00
1:53 pm 13:53 Sunny 75 23.9 31 -0.6 20 20 W 5 7 29.98 1015 10 16 0.00 0.00
2:53 pm 14:53 Sunny 77 25 32 0 19 19 VRB 3 6 29.95 1014 10 16 0.00 0.00
3:53 pm 15:53 Sunny 78 25.6 28 -2.2 16 16 ESE 3 6 29.93 1013 10 16 0.00 0.00
4:53 pm 16:53 Sunny 78 25.6 28 -2.2 16 16 SSE 6 9 29.91 1013 10 16 0.00 0.00
5:53 pm 17:53 Sunny 79 26.1 27 -2.8 15 15 E 3 6 29.88 1012 10 16 0.00 0.00
6:53 pm 18:53 Sunny 78 25.6 29 -1.7 16 16 Calm 29.87 1012 10 16 0.00 0.00
7:53 pm 19:53 Clear 68 20 39 3.9 35 35 NNE 3 6 29.87 1012 10 16 0.00 0.00
8:53 pm 20:53 Clear 68 20 33 0.6 27 27 WNW 7 11 29.88 1012 10 16 0.00 0.00
9:53 pm 21:53 Clear 64 17.8 36 2.2 35 35 NNW 6 9 29.90 1012 10 16 0.00 0.00
10:53 pm 22:53 Clear 60 15.6 38 3.3 44 44 NNW 3 6 29.91 1013 10 16 0.00 0.00
11:53 pm 23:53 Clear 53 11.7 41 5 64 64 NNW 6 9 29.92 1013 10 16 0.00 0.00

Powered by AerisWeather